Location: Maignaut
(43.8886°N, 0.4051°E)
Time: 02:38:12
(UTC+00:00)

Cosmos 968 Rocket - Pass Details

Date: 17 January 2021
Orbit: 740 x 771 km, 74.0° (Epoch: 04 March)

Event Time Altitude Azimuth Distance (km) Brightness Sun altitude
Rises 17:35:54 0° 212° (SSW) 3,168 7.6 -8.5°
Reaches altitude 10° 17:38:18 10° 216° (SW) 2,246 6.9 -8.9°
Maximum altitude 17:43:17 54° 294° (WNW) 896 4.2 -9.7°
Drops below altitude 10° 17:48:17 10° 12° (NNE) 2,260 5.6 -10.6°
Sets 17:50:43 0° 17° (NNE) 3,189 6.4 -11.0°
